ECMWFNIL_700_temp_000.txt.gz
Temp
8 8 8 8 8 8 8 8 8 8 8 7 7 7 7 7 6 6 6 6 6 5 6 6 6 6 5 5 5 5 5 5 5 5 4 5 5 5 5 5 5 5
8 8 8 8 8 8 8 8 7 7 7 7 7 7 7 7 6 5 5 5 5 5 5 5 5 5 5 5 5 5 5 5 4 4 4 4 4 4 5 5 5 5
8 8 8 8 8 8 7 7 7 7 7 7 7 7 7 6 6 5 5 5 4 4 4 5 5 5 5 5 5 5 5 4 4 4 4 4 4 4 4 5 5 5
8 8 7 7 7 7 7 7 7 7 7 7 7 7 6 6 5 5 4 4 4 4 4 4 4 4 4 4 4 4 4 4 4 4 4 4 4 4 4 4 5 5
8 7 7 7 7 7 7 7 7 7 7 7 7 7 6 6 5 4 4 4 4 4 4 4 4 4 4 4 4 4 4 4 4 4 3 3 4 4 4 4 4 5
8 7 7 7 7 7 7 7 6 6 6 6 6 6 6 5 4 4 4 4 4 4 4 4 4 4 4 4 3 3 3 3 3 3 3 3 3 4 4 4 4 4
8 7 7 7 7 7 7 6 6 6 6 6 6 5 5 4 4 4 4 4 4 3 4 4 3 3 4 3 3 3 3 3 3 3 3 3 3 4 4 4 4 4
8 7 7 7 7 6 6 6 6 6 6 5 5 5 4 4 4 4 3 3 3 3 4 4 4 3 3 3 3 3 3 3 3 3 3 3 4 3 3 4 4 4
7 7 7 7 6 6 6 6 5 6 5 5 5 4 4 4 4 3 3 3 3 3 3 4 4 3 3 2 3 3 3 3 3 3 3 3 4 4 3 3 4 4
7 7 7 6 6 6 5 5 5 5 5 5 5 4 4 4 3 3 3 3 3 4 3 3 4 4 3 3 3 3 3 3 3 3 3 3 3 3 3 4 4 4
7 6 6 6 6 5 5 5 5 4 4 4 4 4 4 4 3 3 3 3 3 3 3 3 3 3 3 3 3 3 3 3 3 3 3 3 3 3 3 4 4 4
6 6 6 6 6 5 5 5 4 4 4 4 4 4 4 4 4 3 3 3 3 3 3 3 3 3 3 3 3 3 3 3 3 2 2 3 3 3 3 3 3 4
6 6 6 5 5 5 5 5 4 4 4 4 4 4 4 4 4 3 3 3 3 3 3 3 3 3 3 3 2 2 2 2 2 2 2 3 3 3 3 3 3 3
6 6 5 5 5 5 5 4 4 4 4 4 4 4 4 4 3 3 3 3 3 3 3 3 3 3 3 3 2 2 2 2 2 2 2 3 3 3 3 3 3 3
5 5 5 5 5 5 4 4 4 4 4 3 4 4 4 4 3 3 3 3 3 3 3 3 3 3 3 2 2 2 2 2 2 2 2 3 3 3 3 3 2 2
5 5 5 5 5 4 4 4 4 4 4 3 4 4 4 4 4 3 3 3 3 3 3 3 3 3 2 2 2 2 2 2 2 2 2 2 2 3 3 2 2 2
5 5 5 5 5 4 4 4 4 4 4 3 3 3 4 3 3 3 3 2 3 3 3 3 3 2 2 2 2 2 2 2 2 2 2 2 2 2 2 2 2 2
5 5 5 5 5 4 4 4 4 4 4 3 3 3 3 3 3 3 3 2 2 3 3 3 3 2 2 2 2 2 2 2 2 2 2 2 1 2 2 1 1 1
5 5 5 5 5 4 4 4 4 4 4 3 3 3 3 3 3 3 2 2 3 2 2 2 2 2 2 2 2 2 2 2 2 2 1 1 1 2 1 1 1 1
5 5 5 5 4 4 4 4 4 3 3 3 3 3 3 3 3 3 3 3 3 3 2 2 2 2 2 2 2 2 2 2 2 2 1 1 1 1 1 1 1 1
5 4 4 4 4 4 4 4 3 3 3 3 3 3 3 3 3 3 3 2 2 2 2 2 2 2 2 2 2 2 3 2 3 2 2 1 1 1 1 1 0 0
4 4 4 4 4 4 4 4 3 3 3 3 3 3 3 3 3 3 3 2 2 2 2 2 2 2 2 2 2 3 3 2 3 2 2 1 1 1 1 1 0 1
4 4 4 4 4 4 3 3 3 3 3 3 3 3 3 2 2 2 2 2 2 2 2 2 2 2 2 2 2 3 3 2 2 2 2 1 1 1 1 1 1 1
4 4 4 4 4 4 3 3 3 3 3 3 3 2 2 2 2 2 2 2 2 2 2 2 2 2 2 2 2 2 3 2 2 2 2 1 1 1 1 1 1 1
4 4 4 4 4 3 3 3 3 3 2 2 2 2 2 2 2 2 2 2 2 2 2 2 2 2 2 2 2 2 2 2 2 2 2 1 1 1 1 1 1 1
4 4 3 3 3 3 3 3 3 3 2 2 2 2 2 2 2 2 2 2 2 2 2 2 2 2 2 2 2 2 2 2 2 2 2 2 2 2 2 1 1 1

ECMWFNIL_700_temp_003.txt.gz
Temp
10 10 10 10 9 9 9 8 8 8 8 8 8 8 8 8 8 8 8 7 7 7 7 7 6 6 6 6 6 6 6 5 5 5 5 5 5 5 5 5 5 5
10 10 10 9 9 9 9 8 8 8 8 8 8 8 8 7 7 7 7 7 7 6 6 6 5 5 5 5 5 5 5 5 5 5 5 5 5 5 5 5 5 5
9 9 9 9 9 9 8 8 8 8 8 8 7 7 7 7 7 7 6 6 6 6 5 5 5 5 5 5 5 5 5 5 4 4 4 4 4 4 5 5 4 4
9 9 9 9 8 8 8 7 7 7 7 7 7 7 6 6 6 6 6 6 5 5 5 5 5 5 5 5 5 4 5 5 4 4 4 4 4 4 4 4 4 4
9 9 9 8 8 8 7 7 7 7 7 7 7 6 6 5 5 5 5 5 5 5 5 5 5 5 5 5 4 4 4 4 4 4 4 4 4 4 4 4 4 4
9 9 8 8 8 7 7 7 7 7 7 7 6 6 5 5 5 5 5 5 5 4 4 5 5 4 4 5 4 4 4 4 4 4 4 4 3 3 3 4 4 3
9 9 8 8 7 7 7 7 7 7 7 7 6 5 5 5 5 5 5 5 5 4 4 4 4 4 4 4 4 4 4 4 4 4 4 3 3 3 3 3 3 3
9 9 8 8 7 7 7 7 7 7 7 7 6 6 5 5 5 5 5 5 5 4 4 4 4 4 4 4 4 4 4 4 4 4 3 3 3 3 3 3 3 3
9 9 8 8 7 7 6 6 6 5 5 6 6 5 5 5 5 5 5 5 5 4 4 4 4 4 4 4 4 4 4 4 4 3 3 3 3 3 3 3 3 3
9 9 8 8 7 7 6 6 5 4 3 4 5 5 5 5 5 5 5 5 5 5 5 4 4 4 4 4 4 4 4 4 3 4 3 3 3 3 3 3 3 3
9 9 8 7 7 7 6 6 5 4 4 4 5 5 5 5 5 5 5 5 5 5 5 5 4 4 4 4 4 4 4 3 3 4 4 3 3 3 3 3 3 3
9 8 8 7 7 6 6 6 5 5 5 4 4 4 4 4 4 5 5 5 5 5 5 5 4 4 4 4 4 4 4 3 4 4 3 3 3 3 3 3 3 3
9 8 7 7 6 6 6 6 5 5 5 4 4 4 4 4 4 4 5 5 5 5 5 4 4 4 4 4 3 4 4 4 4 4 3 3 3 3 3 3 2 3
8 7 7 6 6 6 6 6 5 5 5 5 5 5 4 4 4 4 4 4 4 4 4 4 4 4 4 3 3 4 4 4 3 3 3 3 3 3 2 2 2 2
8 7 6 6 6 6 6 6 6 5 5 5 5 5 5 4 4 4 4 4 4 4 4 4 4 3 3 3 3 3 3 3 3 3 3 3 3 2 2 2 2 2
7 6 6 6 6 6 5 5 5 5 5 5 5 5 5 4 4 4 4 4 4 4 4 4 4 3 3 3 3 3 3 3 3 3 3 3 3 2 2 2 2 2
6 6 6 6 6 6 5 5 5 5 5 5 5 4 4 4 4 4 4 4 4 3 3 3 3 3 3 3 3 3 3 3 3 3 3 3 3 2 2 2 2 2
6 6 5 5 5 5 5 5 5 5 5 5 5 4 4 4 4 4 3 3 3 3 3 3 3 3 3 3 3 3 3 3 3 3 3 3 3 2 2 2 2 2
6 5 5 5 5 5 5 5 5 5 5 5 4 4 4 4 4 3 3 3 3 3 3 3 3 2 2 2 3 3 3 3 3 3 3 3 2 2 2 2 2 2
6 5 5 5 5 5 5 5 5 5 4 4 4 4 4 4 4 3 3 3 3 3 3 3 3 2 2 2 2 2 3 3 3 3 3 2 2 2 2 2 2 2
6 5 5 5 5 5 5 5 4 4 4 4 4 4 4 3 3 3 3 3 3 3 2 2 3 3 2 2 2 2 2 3 3 3 2 2 2 2 2 2 2 2
5 5 5 5 5 5 5 4 4 4 4 4 4 4 3 3 3 3 3 3 3 2 2 2 2 2 2 2 2 2 2 3 3 2 2 2 2 2 2 2 2 2
6 5 5 5 5 5 4 4 4 4 4 4 4 4 3 3 3 3 2 2 2 2 2 2 2 2 2 2 2 2 2 2 2 2 2 2 2 2 2 2 2 2
6 5 5 5 5 5 4 4 4 4 4 4 4 3 3 3 3 2 2 2 2 2 2 2 2 2 2 2 2 2 2 2 2 2 2 2 2 2 2 2 2 2
6 5 5 5 5 4 4 4 4 4 4 3 3 3 3 3 3 3 2 2 2 2 2 2 2 2 2 2 2 2 2 2 2 2 2 2 2 2 2 2 2 2
5 5 5 5 4 4 4 4 4 4 4 3 3 3 3 3 3 3 3 3 2 2 2 2 2 2 2 2 2 2 2 2 2 2 2 2 2 2 1 1 2 1

ECMWFNIL_700_temp_006.txt.gz
Temp
10 10 10 11 11 11 10 10 10 10 10 9 9 9 8 8 8 8 8 8 8 8 7 7 7 7 7 6 6 6 6 6 6 6 5 5 5 5 5 5 5 5
10 10 10 11 11 11 11 10 10 10 10 9 9 9 8 8 8 8 8 7 7 7 6 6 6 6 6 6 6 6 6 6 5 5 5 5 5 5 4 4 4 4
10 10 10 10 10 11 11 10 10 10 9 9 9 8 8 8 8 8 7 7 6 6 6 6 6 5 5 5 5 5 5 5 5 5 5 5 5 4 4 4 4 4
10 10 10 10 10 10 10 10 10 9 9 9 8 8 8 8 8 7 7 6 6 6 5 5 5 5 5 5 5 5 5 5 5 5 5 4 4 4 4 4 4 4
10 10 10 10 10 10 10 10 9 9 9 8 8 8 8 8 7 7 6 6 6 5 5 5 5 5 5 5 5 5 5 5 4 4 4 4 4 4 4 4 4 4
10 10 10 10 9 9 9 9 9 9 8 8 8 8 8 7 7 6 6 6 5 5 5 5 5 5 5 5 4 4 4 4 4 4 4 4 4 4 4 4 4 4
10 10 10 10 9 9 9 9 9 9 9 9 8 8 7 7 6 6 6 5 5 5 5 5 5 5 4 4 4 4 4 4 4 4 4 4 4 4 4 4 4 4
10 10 10 10 9 9 9 9 9 8 8 8 8 8 7 7 6 6 5 5 5 5 5 5 5 5 4 4 4 4 4 4 4 4 4 4 4 4 4 3 4 4
10 10 10 10 9 9 9 9 9 8 7 7 7 7 7 6 6 6 6 5 5 5 5 5 5 5 5 4 4 4 4 4 4 4 4 4 4 4 3 3 3 4
9 10 10 10 9 9 9 9 8 7 6 6 6 6 6 6 6 6 6 5 5 5 5 5 5 5 5 5 4 4 4 4 3 3 3 3 3 3 3 3 3 4
9 9 9 9 9 9 9 8 8 7 6 6 6 6 6 6 6 6 5 5 5 5 5 5 4 5 5 4 4 4 4 4 3 3 3 3 3 3 3 3 3 4
9 9 9 9 9 9 9 8 7 7 6 6 6 6 6 6 6 5 5 5 5 5 5 4 4 4 4 4 4 4 4 3 3 3 4 3 3 3 3 4 4 4
9 9 9 9 9 9 8 8 7 6 6 6 6 6 6 6 5 5 5 5 5 5 5 4 4 4 4 4 4 4 4 3 3 3 3 3 3 3 3 3 4 3
9 9 9 8 8 8 8 7 7 6 6 6 6 6 6 6 6 5 5 5 5 5 4 4 4 4 4 4 4 4 4 4 4 3 3 3 3 3 3 3 3 3
9 9 9 8 8 8 7 7 6 6 6 6 6 6 6 6 6 5 5 5 5 5 4 4 4 4 4 4 4 4 4 4 4 3 3 3 3 3 3 3 3 3
9 9 8 8 8 7 7 6 6 6 6 6 6 6 5 5 5 5 5 5 5 4 4 4 4 4 4 3 3 3 3 3 3 3 3 3 3 3 3 3 3 3
9 8 8 8 8 7 6 6 6 6 6 6 6 6 5 5 5 5 5 5 5 4 4 4 4 4 4 3 3 3 3 3 3 3 3 3 3 3 3 3 3 3
8 8 8 8 7 7 6 6 6 6 6 6 6 5 5 5 5 5 5 5 5 4 4 4 4 4 4 4 3 3 3 3 3 3 3 3 3 3 3 3 3 2
8 8 8 8 7 6 6 6 6 6 6 6 5 5 5 5 5 5 5 5 4 4 4 4 4 4 4 3 3 3 3 3 3 2 2 3 3 2 2 3 2 2
8 8 7 7 7 6 6 6 6 6 6 5 5 5 5 5 5 5 5 4 4 4 4 4 4 4 4 3 3 3 3 3 3 2 2 2 2 2 2 2 2 2
7 7 7 7 7 6 6 6 6 6 6 5 5 5 5 5 4 4 4 4 4 4 4 4 3 3 4 3 3 3 3 3 3 2 2 2 2 2 2 2 2 2
7 7 7 7 7 7 6 6 6 5 5 5 5 5 5 4 4 4 4 4 4 4 4 3 3 3 3 3 3 3 3 3 3 2 2 2 2 2 2 2 2 2
7 7 7 7 7 6 6 6 5 5 5 5 5 5 4 4 4 4 4 4 4 4 3 3 3 3 3 3 3 3 2 3 2 2 2 2 2 2 2 2 2 2
7 7 7 7 7 6 6 5 5 5 5 5 4 4 4 4 4 4 4 4 3 3 3 3 3 3 3 3 3 2 2 3 2 2 2 2 2 2 2 2 2 2
7 7 7 7 6 6 6 5 5 5 5 5 4 4 4 4 4 3 3 3 3 3 3 3 3 2 2 3 3 2 2 2 2 2 2 2 2 2 2 2 2 2
7 7 7 7 6 6 6 5 5 5 5 4 4 4 4 3 3 3 3 3 3 3 3 3 2 2 2 2 2 2 2 2 2 2 2 2 2 2 2 2 2 2

ECMWFNIL_700_temp_009.txt.gz
Temp
10 11 11 11 11 11 11 11 11 10 10 10 10 10 10 9 9 8 8 8 8 8 8 8 7 7 7 7 6 6 5 5 6 5 5 5 5 5 5 5 5 5
10 10 10 10 11 11 11 11 10 10 10 10 10 10 9 9 8 8 8 8 7 7 7 7 7 7 6 6 6 6 5 5 5 5 5 5 5 5 5 5 5 4
10 10 10 10 10 10 11 11 11 10 10 10 10 9 9 9 8 8 7 7 7 7 7 6 6 6 6 6 6 6 5 5 5 5 5 5 5 5 5 5 4 4
10 10 10 10 10 10 10 11 10 10 10 10 10 9 9 8 8 7 7 7 7 6 6 6 6 6 6 6 6 5 5 5 5 5 5 5 5 5 5 4 4 4
10 10 10 10 10 10 10 10 10 10 10 10 9 9 8 8 7 7 7 6 6 6 6 6 6 6 6 6 6 5 5 5 5 5 5 4 5 5 5 4 4 4
10 10 10 10 10 10 10 10 10 10 10 9 9 8 8 7 7 7 6 6 6 6 6 6 6 6 6 6 6 6 5 5 5 4 4 4 4 4 4 4 4 4
10 10 10 10 10 10 10 10 10 10 10 9 9 8 8 7 7 6 6 6 6 5 5 6 6 6 6 6 6 5 5 5 5 4 4 4 4 4 4 4 4 4
11 10 10 10 10 10 9 9 9 10 9 9 9 8 8 7 7 7 7 6 6 5 5 5 5 5 5 5 5 5 5 5 5 4 4 4 4 4 4 4 4 4
10 10 10 9 9 9 9 9 9 9 9 9 9 8 7 7 7 7 6 6 6 6 5 5 5 5 5 5 5 5 5 5 5 4 4 4 4 4 4 4 4 4
10 10 10 9 9 9 9 9 9 9 9 9 8 7 7 7 6 6 6 5 6 6 5 5 5 5 5 5 4 4 5 4 4 4 4 4 4 4 4 4 4 4
10 10 10 9 9 9 9 9 9 9 9 9 8 7 6 6 6 6 6 5 5 5 5 6 5 5 5 5 4 4 4 4 4 4 4 4 4 4 3 4 4 4
10 10 9 9 9 9 9 9 9 9 9 8 7 7 6 6 6 6 6 5 5 5 5 5 5 5 5 4 4 4 4 4 4 4 4 3 3 3 3 3 3 3
10 9 9 9 9 9 9 9 9 9 8 7 7 6 6 6 6 5 5 5 5 5 5 5 5 5 4 4 4 4 4 4 4 4 4 3 3 3 3 3 3 3
10 9 9 9 9 9 9 9 9 8 8 7 6 6 6 6 6 6 6 6 6 5 5 5 5 5 4 4 4 4 4 4 4 4 4 4 4 3 3 3 3 3
10 9 9 9 9 9 9 8 8 8 7 7 6 6 6 6 6 6 6 6 6 5 5 5 5 5 4 4 4 4 4 4 4 3 4 4 3 3 3 3 3 3
10 9 9 9 9 8 8 8 8 8 7 6 6 6 6 6 6 6 6 6 6 5 5 5 4 4 4 4 4 4 4 4 4 3 3 3 3 3 3 3 3 3
10 9 8 8 8 8 8 8 8 8 7 6 6 6 6 6 6 5 5 5 5 5 5 5 4 4 4 4 4 4 4 4 3 3 3 3 3 3 3 3 3 3
9 8 8 8 8 8 8 8 8 7 7 6 6 6 6 6 5 5 5 5 5 5 4 4 4 4 4 4 4 4 3 3 3 3 3 3 2 2 2 2 2 2
8 8 8 8 8 8 8 8 7 7 7 6 6 6 6 6 5 5 5 5 5 4 4 4 4 4 3 3 3 3 3 3 3 3 3 3 2 2 2 2 2 2
8 8 8 8 8 7 7 7 7 7 6 6 6 6 6 5 5 5 5 5 5 4 4 4 4 3 3 3 3 3 3 3 3 3 3 3 2 2 2 2 2 2
8 8 8 8 7 7 7 7 6 6 6 6 6 5 5 5 5 5 5 4 4 4 4 4 4 4 4 3 3 3 3 3 3 3 3 3 2 2 2 2 2 2
8 8 7 7 7 7 7 6 6 6 6 5 5 5 5 4 5 4 4 4 4 4 4 4 4 4 3 3 3 3 3 3 3 3 3 2 2 2 2 2 2 1
7 7 7 7 7 7 7 6 6 6 5 5 5 5 5 4 4 4 4 4 4 4 4 4 3 3 3 3 2 2 2 3 3 2 2 2 2 2 2 2 1 1
7 6 6 6 7 7 7 6 6 6 5 5 5 5 5 5 4 4 4 4 4 4 4 3 3 3 3 3 3 3 3 3 2 2 2 2 2 2 2 1 1 1
6 6 6 6 7 7 7 6 6 5 5 5 5 5 5 5 4 4 4 4 4 4 3 3 3 3 3 3 3 3 3 3 2 2 2 2 2 2 2 1 1 1
6 6 6 6 6 6 6 6 5 5 5 5 4 4 5 4 4 4 4 3 4 4 3 3 3 3 3 3 3 3 3 3 2 1 1 2 2 2 2 1 1 1

ECMWFNIL_700_temp_012.txt.gz
Temp
10 10 10 10 10 10 10 10 10 10 10 10 10 10 10 10 10 9 9 8 8 8 7 7 7 7 7 7 6 6 6 6 5 5 5 5 5 5 5 5 5 5
10 10 10 10 10 10 10 10 10 10 10 10 10 10 10 10 10 9 8 8 7 7 7 7 7 7 6 6 6 6 6 6 5 5 5 5 5 5 5 5 5 5
10 10 10 10 10 10 10 10 10 10 10 10 10 10 10 10 9 9 8 8 7 7 7 7 7 6 6 6 6 6 6 5 5 5 5 5 5 5 5 5 5 5
11 10 10 10 10 10 10 10 10 10 10 10 10 10 10 10 9 9 8 7 7 7 7 7 6 6 6 6 6 6 5 5 5 5 5 5 5 5 5 5 5 4
11 11 11 10 10 10 10 10 9 9 10 10 10 9 10 10 9 9 8 7 7 7 7 7 6 6 6 6 6 6 6 5 5 5 5 5 5 5 5 5 4 4
11 11 11 10 10 10 10 10 10 9 9 10 9 9 9 9 9 8 7 7 7 6 6 6 6 6 6 6 6 6 5 5 5 5 5 5 5 5 5 5 4 4
11 11 11 10 10 10 10 10 10 9 9 9 9 9 9 9 8 8 7 7 6 6 6 6 6 6 6 6 5 5 5 5 5 5 5 5 5 4 4 4 4 4
11 11 10 10 10 10 10 10 10 9 9 9 9 9 9 9 8 7 7 7 7 7 6 6 6 6 6 6 5 5 5 5 5 4 4 4 4 4 4 4 4 4
11 10 10 10 10 10 9 10 10 9 9 9 9 9 9 8 8 7 7 7 7 7 7 7 6 6 6 6 5 5 5 5 5 4 4 4 4 4 4 4 4 4
11 11 10 10 9 9 9 9 9 9 9 9 9 9 9 8 7 7 7 7 7 7 7 7 6 6 6 6 5 5 5 4 4 4 4 4 4 4 4 3 4 4
10 10 10 10 9 9 9 9 9 9 9 9 9 9 9 8 7 7 7 6 6 6 6 6 6 6 6 6 5 5 4 4 4 4 4 4 4 3 3 3 3 3
10 10 10 9 8 8 8 8 8 8 9 9 9 9 9 8 7 6 6 6 6 6 6 6 6 6 6 5 5 5 4 4 4 4 4 3 3 3 3 3 3 3
9 9 8 8 8 8 8 8 8 8 9 9 9 9 8 7 7 6 6 6 6 6 6 6 6 5 5 5 5 4 4 4 4 4 3 3 3 3 3 3 3 3
8 7 8 8 8 8 8 8 8 8 9 9 9 8 8 7 6 6 6 6 6 6 5 5 5 5 5 5 5 4 4 4 4 4 3 3 3 3 3 3 3 3
6 6 8 8 8 8 8 8 8 8 8 8 8 8 7 6 6 6 5 5 6 5 5 5 5 5 5 5 5 4 4 4 4 3 3 3 3 3 3 3 3 2
7 7 8 8 8 8 8 8 8 8 8 8 8 7 7 6 6 6 5 6 5 5 5 5 5 5 5 5 5 4 4 4 4 3 3 3 3 3 3 3 3 2
8 7 7 7 8 8 9 8 8 8 8 7 7 7 6 6 6 6 6 6 6 5 5 5 5 5 5 5 4 4 4 3 3 3 3 3 3 3 3 3 3 2
8 7 7 7 8 8 8 8 8 8 7 7 7 7 6 6 6 6 6 6 6 5 5 5 5 5 5 4 4 4 3 3 3 2 2 2 2 2 3 3 3 2
7 7 7 7 8 8 8 8 8 7 7 7 7 6 6 6 6 6 6 5 5 5 4 4 5 5 4 4 4 4 3 3 3 3 2 2 2 2 2 3 3 3
7 7 7 7 8 8 8 8 8 7 7 7 7 6 6 6 6 5 5 5 5 5 4 4 4 4 4 4 4 4 3 3 3 3 3 3 2 2 2 2 2 2
7 7 7 7 7 8 8 8 7 7 7 6 6 6 6 5 5 5 5 5 4 4 4 4 4 4 4 4 4 3 3 3 3 3 3 3 3 2 2 2 2 2
7 7 7 7 8 8 8 8 7 7 6 6 6 6 5 5 5 5 5 5 4 4 4 4 4 4 4 4 3 3 3 3 3 3 3 3 3 2 2 2 2 1
7 7 8 8 8 8 8 7 6 6 6 6 6 5 5 5 5 5 5 5 4 4 4 4 4 4 4 3 3 3 3 3 3 3 3 3 2 2 2 2 2 1
7 8 8 8 8 8 7 7 6 6 6 6 6 5 5 5 5 5 5 5 4 4 4 4 4 4 3 3 3 3 3 3 3 3 3 3 2 2 2 2 1 1
7 8 8 8 8 7 7 7 6 6 6 6 6 6 5 5 5 5 4 4 4 4 4 4 4 3 3 3 3 3 3 3 3 3 3 3 2 2 2 1 1 1
7 7 7 7 7 7 7 7 6 6 6 6 6 5 5 5 5 4 4 4 4 4 4 4 4 3 3 3 3 3 3 3 3 3 3 3 2 2 2 1 1 1

ECMWFNIL_700_temp_015.txt.gz
Temp
11 11 11 10 10 10 10 10 10 9 9 9 9 9 10 10 10 10 10 9 9 8 8 8 7 7 7 7 7 7 6 6 7 7 7 6 6 6 6 6 5 5
11 11 11 10 10 10 10 10 10 10 9 9 9 9 9 10 10 10 10 9 9 8 8 8 7 7 7 7 7 6 6 6 6 6 6 6 6 6 5 5 5 5
11 11 11 11 10 10 10 10 10 10 10 9 9 9 9 9 10 10 9 9 9 8 8 8 8 7 7 7 6 6 6 6 6 6 6 6 6 6 5 5 5 5
11 11 11 11 11 10 10 10 10 10 9 9 9 9 9 9 9 9 9 9 9 8 8 8 7 7 7 7 7 6 6 6 6 6 6 5 5 5 5 5 5 5
11 11 11 11 11 11 10 10 10 9 9 9 9 9 9 9 9 9 9 9 9 8 8 8 7 7 7 7 7 7 6 6 6 5 5 5 5 5 5 5 5 5
10 11 11 11 11 10 10 10 9 9 9 9 9 9 9 9 9 9 9 9 8 8 8 7 7 7 7 7 7 6 6 6 5 5 5 5 5 5 5 5 5 5
10 10 10 10 10 10 9 9 9 9 9 9 9 9 9 9 9 9 9 8 8 8 7 7 7 7 7 7 6 6 6 6 5 5 5 5 5 5 5 5 5 4
10 10 9 9 9 9 9 9 9 9 9 9 9 9 9 9 9 9 9 8 8 7 7 7 7 6 6 6 6 6 6 6 6 5 5 5 5 5 5 5 4 4
10 9 9 9 9 9 8 9 9 8 9 9 9 9 9 9 9 9 8 8 7 7 7 7 6 6 6 6 6 6 6 6 6 5 5 5 5 5 5 4 4 4
9 8 8 8 8 8 8 8 8 8 8 8 8 8 9 9 9 9 8 8 7 7 7 7 6 6 6 6 6 6 6 6 6 5 5 5 5 5 5 5 4 4
8 8 8 8 8 8 8 8 8 8 8 8 8 8 8 9 8 8 8 8 7 7 7 7 6 6 6 6 6 6 6 6 5 5 5 5 5 5 5 5 4 4
8 8 9 8 8 8 8 8 8 8 8 8 8 8 8 8 8 8 8 8 7 7 7 6 6 6 6 6 6 6 6 5 5 5 5 5 5 5 4 4 4 4
8 8 8 7 7 7 7 7 7 7 7 7 7 8 8 8 8 8 8 7 7 7 6 6 6 6 6 6 5 5 5 5 5 5 5 5 4 4 4 4 3 3
8 8 8 7 6 6 6 7 7 7 7 7 7 8 8 8 8 8 7 7 7 7 7 7 6 6 5 5 5 5 5 5 5 5 5 5 4 4 3 3 3 3
9 8 8 8 7 7 6 7 7 7 7 8 8 8 8 8 8 8 7 7 7 7 7 6 6 6 5 5 5 5 5 5 5 5 5 5 4 4 4 3 3 2
9 8 8 8 8 8 7 7 6 6 8 8 8 8 7 7 8 7 7 7 7 7 6 6 6 5 5 4 4 4 5 5 5 5 5 5 4 4 4 3 3 2
9 8 8 8 8 8 7 7 6 7 8 8 8 8 7 7 7 7 7 7 7 7 6 6 5 5 4 4 4 4 4 5 5 5 5 4 4 4 3 3 3 3
9 8 9 9 8 8 8 8 7 8 8 7 7 8 7 7 7 7 7 7 7 6 6 5 5 5 5 4 4 4 4 5 5 5 5 4 4 4 3 3 3 2
9 9 9 9 9 9 9 8 8 7 7 7 7 7 7 7 7 7 7 6 6 6 6 5 5 5 5 5 5 4 4 5 5 4 4 4 4 4 4 3 3 2
9 9 9 9 9 8 8 8 7 7 7 7 7 7 7 7 7 6 6 6 6 6 5 5 5 4 4 5 4 4 4 4 4 4 4 4 4 4 3 3 3 2
9 9 9 9 8 8 7 7 7 7 7 7 7 7 7 7 6 6 6 6 5 5 5 5 4 4 4 4 4 4 4 4 4 4 4 4 3 3 3 3 3 2
9 8 8 8 7 7 6 6 7 7 7 7 7 7 7 6 6 6 6 5 5 5 5 5 4 4 4 4 4 4 4 4 4 4 4 3 3 3 3 2 2 2
9 9 8 7 7 6 6 6 7 7 7 7 7 7 7 6 6 6 5 5 5 5 5 4 4 4 4 4 4 4 4 4 3 3 3 3 2 2 2 2 2 2
9 9 8 7 6 6 6 6 7 7 7 7 7 7 6 6 6 5 5 5 5 5 5 4 4 4 4 4 4 4 3 3 2 3 3 2 2 2 2 2 2 2
8 8 8 7 7 6 6 6 7 7 7 7 6 6 6 5 5 5 5 5 5 5 4 4 4 4 4 4 3 3 3 2 2 2 2 2 2 3 2 2 2 2
8 8 7 7 7 6 6 6 6 6 6 6 6 5 5 5 5 5 5 5 5 5 4 4 4 4 4 3 3 3 3 2 2 2 2 2 3 3 2 2 2 2

ECMWFNIL_700_temp_021.txt.gz
Temp
12 12 12 12 12 12 12 11 11 11 11 11 11 11 10 10 10 10 10 10 9 9 9 10 10 9 9 9 9 8 8 8 8 7 7 7 7 7 6 6 6 6
12 12 12 12 12 12 12 11 11 11 11 11 11 10 10 10 10 10 10 9 9 9 9 9 9 9 9 9 8 8 8 8 8 7 7 7 7 7 6 6 6 6
12 12 12 12 12 12 11 11 11 11 11 11 11 10 10 10 10 9 9 9 9 9 9 9 9 9 9 8 8 8 8 8 7 7 7 7 7 7 6 6 6 6
12 12 12 12 12 11 11 11 11 11 11 11 11 10 10 10 10 9 9 9 9 9 9 9 9 9 8 8 8 8 8 7 7 7 7 7 7 6 6 6 6 6
12 12 12 12 11 11 11 11 11 11 11 11 10 10 10 10 9 9 9 9 9 9 9 9 9 9 8 8 8 8 7 7 7 7 7 7 6 6 6 6 6 6
12 12 12 11 11 11 11 11 11 11 11 10 10 10 10 9 9 9 8 8 8 9 9 9 9 8 8 8 8 7 7 7 7 7 6 6 6 6 5 5 5 5
12 12 12 11 11 11 11 11 10 10 10 10 10 10 10 9 9 8 8 8 8 8 8 8 8 8 8 8 7 7 7 7 6 6 6 6 6 5 5 5 5 5
12 12 12 11 11 11 11 10 10 10 10 10 10 10 9 9 9 9 9 8 8 8 8 8 8 8 8 7 7 7 7 7 6 6 6 6 5 5 5 5 5 5
12 12 12 11 11 11 10 10 10 10 9 9 9 9 9 8 9 9 9 8 8 8 8 8 8 7 7 7 7 7 7 6 6 6 6 6 5 5 5 5 5 5
12 12 12 11 11 11 10 10 10 10 9 9 9 9 9 8 8 8 8 8 8 8 7 8 8 7 7 7 7 7 7 6 6 6 6 5 5 5 5 5 5 5
12 12 11 11 11 11 10 10 10 10 9 9 9 9 9 8 8 8 7 7 8 7 7 7 7 7 7 6 6 7 6 6 6 6 5 5 5 5 5 5 5 5
12 12 11 11 11 11 10 10 10 10 10 10 9 9 9 9 8 8 7 7 7 7 7 7 7 7 7 6 6 6 6 6 6 5 5 5 5 5 5 5 5 5
12 12 11 11 11 11 10 10 9 9 9 9 9 9 9 9 9 8 7 7 6 6 6 7 7 7 7 6 6 6 6 6 6 5 5 5 5 5 4 4 4 4
12 12 12 11 11 10 10 9 9 9 9 9 9 8 8 9 9 8 7 7 6 6 6 6 7 7 7 6 6 6 6 6 5 5 5 4 4 4 4 4 4 4
12 12 12 11 11 10 10 9 9 8 8 9 8 8 8 9 8 7 7 6 6 6 6 6 7 7 6 6 6 6 6 6 5 5 5 4 4 4 4 4 4 4
12 12 12 12 11 11 10 9 9 8 8 8 8 8 8 8 8 7 7 6 6 6 6 6 7 7 6 5 5 6 6 5 5 5 5 4 4 4 4 4 4 4
12 12 12 12 11 11 10 9 9 8 8 9 8 8 8 8 7 7 7 6 6 6 6 6 7 7 6 5 5 5 5 5 5 5 5 4 4 4 4 4 4 4
12 12 12 12 11 11 11 10 9 8 8 8 8 8 8 8 7 7 7 6 5 6 6 6 7 6 6 5 5 5 5 5 5 5 4 4 4 4 4 4 4 4
13 13 12 12 12 12 11 10 10 9 9 8 8 7 8 8 8 7 6 5 5 6 6 6 6 6 6 5 5 5 5 5 5 4 4 4 4 4 3 4 4 4
13 13 13 13 12 12 11 11 10 9 9 8 8 8 8 8 7 7 5 5 5 6 6 6 6 6 5 5 5 5 4 4 4 4 4 4 4 3 3 3 3 3
13 13 13 13 12 12 11 11 10 9 9 9 8 8 7 7 7 6 5 5 5 6 6 6 6 6 5 5 5 5 4 4 5 4 4 4 4 3 3 3 3 3
13 13 13 12 12 12 11 11 10 9 9 8 7 7 7 7 7 6 6 6 6 6 6 6 6 5 5 5 5 5 5 5 5 4 4 4 3 3 3 3 3 3
13 13 12 12 12 11 11 10 9 9 9 8 7 7 7 7 7 7 7 6 6 6 6 6 6 5 5 5 5 5 5 5 5 4 4 4 3 3 3 3 3 3
13 12 12 11 11 11 10 10 9 9 8 8 8 7 7 7 7 7 6 6 6 6 6 6 5 5 5 5 5 5 5 5 4 4 4 4 3 3 4 3 3 3
12 12 12 11 11 10 10 10 9 9 8 8 8 7 7 7 6 6 6 6 6 6 6 5 5 5 5 5 5 5 5 4 4 4 4 4 4 4 4 3 3 3
12 12 12 11 11 10 10 9 9 9 9 8 7 7 7 6 6 6 6 6 6 6 5 5 5 5 5 5 5 5 4 4 4 4 4 3 4 4 4 3 3 3

ECMWFNIL_700_temp_024.txt.gz
Temp
13 12 12 12 12 12 12 12 12 11 11 11 11 11 11 11 11 11 10 10 10 10 10 10 10 10 10 10 9 9 9 8 8 8 8 8 8 7 7 7 7 7
13 13 12 12 12 12 12 12 12 11 11 11 11 11 11 11 11 11 10 10 10 10 10 9 9 9 10 9 9 9 9 8 8 8 8 8 8 7 7 7 7 6
13 13 12 12 12 12 12 12 12 12 11 11 11 11 11 11 11 10 10 10 10 10 10 9 9 9 9 9 9 9 8 8 8 8 8 8 7 7 7 7 6 6
13 13 13 12 12 12 12 12 12 11 11 11 11 11 10 10 10 10 10 10 10 10 9 9 9 9 9 9 8 8 8 8 8 8 8 7 7 7 7 7 7 6
13 13 13 12 12 12 12 11 11 11 11 11 11 11 10 10 10 10 10 10 10 9 9 9 9 9 9 8 8 8 8 8 8 8 7 7 7 7 6 6 6 6
13 13 13 12 12 12 12 11 11 11 11 11 11 11 10 10 10 10 9 9 9 9 9 9 9 9 8 8 8 8 8 8 8 7 7 7 7 6 6 5 5 5
13 13 12 12 12 12 12 11 11 11 11 11 11 11 10 10 10 9 9 9 9 9 9 9 8 8 8 8 8 8 8 8 8 7 7 7 7 6 6 5 5 5
13 13 12 12 12 12 12 11 11 11 11 11 11 10 10 10 10 9 9 9 9 9 9 8 8 8 7 8 8 7 8 8 7 7 7 7 6 6 6 6 6 5
13 13 13 12 12 12 12 11 11 11 11 11 10 10 10 10 9 9 9 9 9 9 8 8 7 7 7 7 7 7 7 7 7 7 7 7 6 6 6 6 5 5
13 13 12 12 12 12 12 11 11 11 11 10 10 10 10 10 9 9 9 9 9 8 8 7 7 7 7 7 7 7 7 7 7 7 7 7 6 6 6 5 5 5
13 13 12 12 12 12 12 11 11 11 11 10 10 10 10 10 10 9 9 9 8 8 7 7 7 7 7 6 6 6 6 7 7 7 7 7 6 6 6 5 5 5
13 13 13 12 12 12 12 11 11 11 11 10 10 10 10 10 10 9 9 9 9 8 8 7 6 6 6 6 6 6 6 7 7 7 7 6 6 6 6 5 5 5
13 13 13 12 12 12 11 11 11 11 11 10 10 10 10 10 10 9 9 9 8 9 8 7 6 6 6 6 6 6 6 6 7 7 6 6 6 6 6 5 5 5
13 13 13 12 12 12 12 11 11 11 10 10 10 10 10 10 9 9 9 9 8 8 8 7 7 6 6 6 6 6 6 6 6 6 6 6 6 5 5 5 5 5
13 13 13 13 12 12 12 11 11 10 10 9 9 10 10 9 9 9 9 9 9 8 7 7 7 7 6 6 6 6 6 6 6 6 6 6 5 5 5 5 5 5
13 13 13 13 13 12 12 12 11 11 10 9 10 10 10 9 9 9 9 9 9 8 7 7 7 6 6 6 5 6 6 6 6 6 6 5 5 5 5 5 5 5
13 13 13 13 13 13 12 12 12 12 11 10 10 10 10 10 9 9 9 9 9 8 6 6 6 6 6 6 5 5 5 6 6 6 6 6 5 5 5 5 5 4
13 13 13 13 13 13 12 12 12 12 12 11 11 11 10 10 9 9 9 9 8 7 6 6 6 6 6 5 5 5 5 6 6 6 6 6 5 5 5 4 4 4
13 13 13 13 13 13 13 13 13 12 12 12 12 12 11 11 10 9 9 8 7 7 7 6 6 6 5 5 5 5 5 6 6 6 6 6 5 5 5 4 4 4
13 13 13 13 13 13 13 13 13 13 13 12 12 12 12 11 10 9 8 8 7 7 7 6 6 5 5 4 5 5 5 6 6 6 6 6 5 5 5 4 4 4
13 13 13 13 13 13 13 13 13 13 12 12 12 12 11 11 10 9 8 8 7 7 6 6 6 5 5 5 5 5 5 6 6 6 6 5 5 5 5 4 4 4
13 13 13 13 13 13 13 13 13 12 12 12 11 11 11 11 10 9 8 7 7 6 6 6 6 5 5 5 5 5 5 5 5 5 5 5 5 5 4 4 4 4
13 13 13 13 13 13 13 13 12 12 12 11 11 11 11 10 10 9 8 7 7 6 6 5 5 6 5 5 5 5 5 5 5 5 5 5 5 5 4 4 4 4
13 13 13 13 13 13 13 13 12 12 12 11 11 11 11 10 9 9 8 7 7 6 6 5 5 5 5 5 5 5 5 5 5 5 5 5 4 4 4 4 4 4
13 12 12 12 12 12 13 12 12 12 11 11 11 11 10 10 9 9 8 7 7 6 6 6 6 6 6 5 5 5 5 5 5 5 5 5 4 4 4 4 4 4
12 12 12 12 12 12 12 12 11 11 11 10 10 10 10 10 9 9 8 7 7 6 6 6 6 6 6 6 5 5 5 5 5 5 5 5 4 4 4 4 4 4

ECMWFNIL_700_temp_027.txt.gz
Temp
13 13 13 12 12 12 11 11 11 11 11 11 11 11 11 11 11 11 11 11 11 11 11 11 11 10 10 10 10 10 9 9 9 9 9 9 9 8 8 8 8 7
13 13 13 12 12 12 12 12 11 11 11 11 11 11 11 11 11 11 11 11 11 11 11 11 10 10 10 10 9 9 9 9 9 8 8 8 8 9 8 8 8 7
13 13 13 13 12 12 12 12 12 12 12 12 12 11 11 11 11 11 11 11 11 10 11 10 10 10 10 10 9 9 9 9 8 8 8 8 8 9 9 8 8 7
13 13 13 13 12 12 12 12 12 12 12 12 12 11 11 11 11 11 11 10 10 10 10 10 10 10 10 9 9 9 8 8 8 8 8 8 9 9 8 8 8 7
14 13 13 13 13 12 12 12 12 12 12 12 11 11 11 11 11 11 11 10 10 10 10 10 10 9 9 9 9 9 8 8 8 8 8 8 8 8 8 8 8 7
14 13 13 13 13 13 12 12 12 12 12 12 12 12 12 11 11 11 11 10 10 10 10 10 10 10 9 9 9 8 8 8 8 7 7 7 8 8 8 8 8 7
14 13 13 13 13 13 13 13 12 12 12 12 12 12 12 12 11 11 11 11 10 10 10 10 10 10 9 9 8 8 8 8 8 7 7 7 7 8 8 7 7 7
14 13 13 13 13 13 13 13 12 12 12 12 12 12 12 12 11 11 11 11 11 11 10 10 9 9 9 9 8 8 8 8 7 7 7 7 7 7 7 7 7 7
14 13 13 13 13 13 13 13 12 13 12 12 12 12 12 12 12 11 11 11 11 10 10 10 9 9 9 8 8 8 8 7 7 7 7 7 7 7 7 7 7 7
14 13 13 13 13 13 13 13 13 13 12 12 12 12 12 12 11 11 11 11 11 11 10 10 9 9 8 8 7 7 8 7 7 7 7 6 6 7 7 7 7 6
14 13 13 13 13 13 13 13 13 12 12 12 12 12 12 11 11 11 11 11 11 10 10 10 9 9 8 8 7 7 7 7 7 7 7 6 6 6 7 6 6 6
14 13 13 13 13 13 13 12 12 12 12 12 12 11 11 11 11 11 11 11 11 10 10 10 9 9 8 8 7 7 7 7 7 7 7 6 6 6 6 6 6 6
13 13 13 13 13 13 12 12 12 12 12 12 12 11 11 11 11 11 11 11 10 10 10 10 9 9 8 7 7 7 7 7 7 6 7 7 6 6 6 6 6 6
13 13 13 13 13 13 12 12 12 12 12 12 12 12 11 11 11 11 11 10 10 10 10 9 9 8 8 8 7 7 7 7 7 6 6 6 6 6 6 6 6 6
14 13 13 13 13 13 13 13 13 13 12 12 13 12 12 11 11 11 11 10 10 10 9 9 9 8 8 8 7 7 6 6 6 6 6 6 6 6 6 6 6 6
14 14 13 13 13 13 13 13 13 13 13 13 13 13 12 11 11 12 11 10 9 9 9 9 9 8 8 8 7 7 6 6 6 6 6 6 6 6 6 6 6 6
14 14 14 14 14 14 14 14 14 13 13 13 13 13 12 12 12 12 12 11 10 9 9 9 8 8 8 7 7 6 6 6 6 6 5 6 6 6 6 6 6 6
14 14 14 14 14 14 14 14 13 13 13 13 13 13 13 13 12 12 12 11 11 10 9 9 8 8 8 7 7 6 6 6 6 6 5 5 6 6 5 5 5 5
14 14 14 14 14 14 14 13 13 13 13 13 13 13 13 13 13 12 12 11 11 10 10 9 9 8 7 7 6 6 6 6 6 5 5 5 6 5 5 5 5 5
14 14 14 14 14 14 13 13 13 13 13 13 13 13 13 13 13 12 12 11 11 11 10 9 9 9 8 7 6 6 6 6 5 5 5 6 6 5 5 6 5 5
15 14 14 14 14 14 13 13 13 13 13 13 13 13 13 13 13 12 12 11 11 11 9 9 9 9 8 7 7 6 6 6 5 5 6 6 6 5 5 5 5 5
14 14 14 14 14 14 13 13 13 13 13 13 13 13 13 13 13 12 12 11 11 11 10 9 9 9 8 7 6 6 6 5 6 6 6 6 6 5 5 5 5 6
14 14 14 14 14 13 13 13 13 13 13 13 13 13 13 13 13 12 12 12 11 11 10 9 9 8 7 7 6 6 5 5 6 6 6 6 6 5 5 5 5 5
14 14 14 14 13 13 13 13 13 13 13 13 13 13 13 13 13 12 12 11 11 11 10 9 8 7 7 6 6 6 5 5 5 6 6 6 6 5 5 5 5 5
14 14 14 13 13 13 13 13 13 13 13 13 13 13 13 13 12 12 11 11 11 10 10 10 9 7 7 6 6 6 5 5 5 6 6 6 5 5 5 5 5 5
14 14 14 13 13 13 13 13 13 12 12 12 12 12 12 12 12 11 11 11 10 10 10 10 9 8 7 6 6 6 5 5 5 6 6 5 5 5 5 5 5 5

ECMWFNIL_700_temp_030.txt.gz
Temp
14 14 14 14 13 13 13 13 13 13 13 12 12 12 12 12 12 12 12 11 11 11 11 11 11 10 11 11 10 10 10 10 10 9 9 8 8 9 8 9 9 9
14 14 14 14 14 13 13 13 13 13 13 13 12 12 12 12 12 12 12 12 11 11 11 11 10 10 10 10 10 10 10 10 9 9 9 8 8 8 8 8 9 9
14 14 14 14 14 13 13 13 13 13 13 13 13 12 12 12 12 12 12 12 12 11 11 11 10 10 10 10 10 9 9 9 9 9 9 8 8 7 7 8 8 8
14 14 14 14 14 13 13 13 13 13 13 13 13 13 12 12 12 12 12 12 11 11 11 11 10 10 10 10 10 10 9 9 9 9 9 8 8 7 7 7 7 8
14 14 14 14 14 14 13 13 13 13 13 13 13 13 13 12 12 12 12 12 11 11 11 10 10 10 10 10 10 10 9 9 9 9 9 9 8 8 7 7 7 7
14 14 14 14 14 14 13 13 13 13 13 13 13 13 13 12 12 12 12 12 11 11 11 11 10 10 10 10 10 9 9 9 9 9 9 9 8 8 7 7 7 7
14 14 14 14 14 14 14 14 13 13 13 13 13 13 13 12 12 12 12 12 11 11 11 11 10 10 10 10 9 9 9 9 8 8 8 8 8 8 7 7 7 7
14 14 14 14 14 14 14 14 13 13 13 13 13 13 13 13 12 12 12 12 12 11 11 11 11 10 10 10 9 9 9 8 8 8 8 8 8 8 8 7 7 7
14 14 14 14 14 14 14 14 14 13 13 13 13 13 13 13 12 12 12 12 12 12 11 11 11 10 10 10 9 9 9 8 8 8 8 8 8 8 8 7 7 7
14 14 14 14 14 14 14 14 14 13 13 13 13 13 13 13 12 12 12 12 12 12 11 11 11 11 10 10 10 9 9 8 8 8 8 8 8 8 8 7 7 7
14 14 14 14 14 14 14 14 13 13 13 13 13 13 13 13 12 12 12 12 12 12 11 11 11 11 10 10 10 9 9 8 8 8 8 8 8 8 7 7 7 7
14 14 14 14 14 14 14 14 13 13 13 13 13 13 13 12 12 12 12 12 12 11 11 11 11 11 10 10 10 9 9 9 8 8 8 8 8 8 7 7 7 7
14 14 14 14 14 14 14 13 13 13 13 13 13 13 13 12 12 12 12 12 12 11 11 11 11 10 10 10 10 10 9 9 8 8 8 8 7 7 7 7 7 6
14 14 14 14 14 14 13 13 13 13 13 13 13 13 13 13 12 12 12 12 12 12 11 11 11 10 10 10 10 9 9 8 8 8 8 7 7 7 7 7 6 6
15 14 14 14 14 14 14 13 13 13 13 13 13 13 13 13 13 13 13 13 12 12 12 12 11 10 10 9 9 9 8 8 8 8 8 7 7 7 7 7 6 6
15 15 14 14 14 14 14 14 13 13 13 13 13 13 13 13 13 13 13 13 13 12 12 12 12 11 10 9 8 8 8 8 8 8 7 7 7 7 7 6 6 6
15 15 15 14 14 14 14 14 14 14 14 13 13 13 13 13 13 13 13 13 13 13 13 13 12 11 10 10 9 8 8 8 8 7 7 7 7 6 6 6 6 6
16 15 15 15 14 14 14 14 14 14 14 14 13 13 13 13 13 13 13 13 14 14 13 13 12 11 11 10 9 8 8 8 7 7 6 6 6 6 6 6 6 5
16 15 15 15 14 14 14 14 14 14 14 14 13 13 13 13 13 13 13 14 14 13 13 13 12 11 11 10 9 9 8 8 7 6 6 6 6 6 6 6 5 5
16 16 15 15 15 15 14 14 14 14 14 14 13 13 13 13 14 14 13 13 13 13 13 13 12 11 11 10 9 9 8 7 7 7 6 6 6 6 5 5 5 5
16 16 15 15 15 15 14 14 14 14 14 14 14 14 14 14 13 13 13 13 13 13 12 12 11 11 11 10 9 9 8 8 7 7 6 6 6 6 6 5 5 5
16 16 16 16 15 15 14 14 14 14 14 14 14 14 14 13 13 13 13 13 13 13 12 11 11 11 10 10 9 8 8 8 7 7 7 6 6 6 6 5 5 5
16 16 16 15 15 14 14 14 14 14 14 14 14 13 13 13 13 13 13 13 13 12 12 11 11 10 10 9 9 9 8 8 8 7 7 6 6 6 5 5 5 5
16 16 15 14 14 14 14 14 14 14 14 13 13 13 13 13 13 13 12 12 13 12 12 11 11 10 10 10 10 9 9 8 7 7 6 6 6 6 5 5 5 5
15 15 14 14 14 14 14 14 14 14 13 13 13 13 13 13 13 12 12 12 12 12 11 11 11 10 10 10 10 9 8 8 7 7 6 6 6 6 5 5 5 5
15 14 14 14 14 14 14 14 14 13 13 13 13 13 13 12 12 12 12 12 12 12 11 11 11 10 10 10 9 9 8 8 7 7 6 6 6 5 5 5 5 5

ECMWFNIL_700_temp_033.txt.gz
Temp
14 14 14 14 14 14 14 14 14 14 13 13 13 13 13 13 12 12 12 12 12 11 11 11 11 11 11 11 10 10 10 10 10 10 10 10 9 9 9 8 8 8
15 15 14 14 14 14 14 14 14 14 13 13 13 13 13 13 13 12 12 12 12 12 11 11 11 11 11 10 10 10 10 10 10 10 10 10 9 9 9 9 8 8
15 15 15 15 15 14 14 14 14 14 13 13 13 13 13 13 13 13 12 12 12 12 11 11 11 11 11 10 10 10 10 10 10 10 10 9 9 9 9 9 8 8
15 15 15 15 15 14 14 14 14 14 14 13 13 13 13 13 13 13 12 12 12 12 11 11 11 11 11 10 10 10 10 10 10 10 9 9 9 9 9 9 9 8
15 15 15 15 15 14 14 14 14 14 14 14 13 13 13 13 13 13 13 12 12 12 12 11 11 11 11 10 10 10 10 10 9 9 9 9 9 9 9 9 9 8
15 15 15 15 15 14 14 14 14 14 14 14 13 13 13 13 13 13 13 13 12 12 12 11 11 11 11 10 10 10 10 9 9 9 9 9 9 9 9 9 9 8
15 15 15 15 15 14 14 14 14 14 14 13 13 13 13 13 13 13 13 13 12 12 12 12 11 11 11 10 10 10 10 9 9 9 9 9 9 9 9 9 9 8
15 15 15 15 14 14 14 14 14 14 14 14 13 13 13 13 13 13 13 13 13 12 12 12 12 11 11 11 11 10 10 10 9 9 9 9 9 9 9 9 8 8
15 15 15 15 15 14 14 14 14 14 14 14 14 13 13 13 13 13 13 13 13 12 12 12 12 11 11 11 11 10 10 10 9 9 9 9 9 9 9 8 8 8
15 15 15 15 15 14 14 14 14 14 14 14 14 13 13 13 13 13 13 13 12 12 12 12 12 11 11 11 11 10 10 10 10 9 9 9 9 9 9 8 8 8
15 15 15 15 15 14 14 14 14 14 14 14 14 13 13 13 13 13 13 13 13 12 12 12 12 11 11 11 11 11 10 10 10 9 9 9 8 8 8 8 8 8
15 15 15 15 15 14 14 14 14 14 14 14 13 13 13 13 13 13 13 13 13 12 12 12 12 12 11 11 11 10 10 10 10 9 9 8 8 8 8 8 8 7
15 15 15 15 14 14 14 14 14 14 14 14 13 13 13 13 13 13 13 13 13 12 12 12 12 12 12 11 10 10 10 10 9 9 9 8 8 8 8 8 7 7
15 15 15 14 14 14 14 14 14 14 14 13 13 13 13 13 13 13 13 13 13 12 12 12 12 12 12 11 11 10 10 9 9 8 8 8 8 7 7 7 7 7
15 15 14 14 14 14 14 14 14 14 14 14 14 13 13 13 13 13 13 13 13 13 13 12 12 12 13 12 11 10 10 9 9 8 8 8 7 7 7 7 7 6
15 14 14 14 14 14 14 14 14 14 14 14 14 14 13 13 13 13 13 13 13 13 13 13 13 13 13 12 11 10 10 9 9 8 8 7 7 7 7 7 6 6
15 15 15 15 15 15 15 14 14 14 14 14 14 14 13 13 13 13 13 13 13 13 13 13 13 13 13 13 12 11 10 9 9 9 8 7 7 7 7 6 6 6
15 15 15 15 15 15 15 15 14 14 14 14 14 14 14 13 13 13 14 14 13 13 13 13 13 13 13 13 12 11 10 9 9 9 8 8 7 7 7 6 6 6
15 15 15 15 15 15 15 14 14 14 14 14 14 14 13 13 13 14 14 13 13 13 13 13 13 13 13 13 12 11 11 10 9 9 8 8 7 6 6 6 6 5
15 15 15 15 15 15 14 14 14 14 14 14 14 14 13 13 13 13 13 13 13 13 13 13 13 13 13 12 11 11 10 9 9 9 9 8 7 6 6 6 5 5
16 15 15 15 14 14 14 14 14 14 14 14 14 13 13 13 13 13 13 13 13 13 13 13 13 13 12 12 11 11 10 8 7 8 8 7 7 6 6 5 5 4
17 16 15 14 14 14 14 14 14 14 14 14 13 13 13 13 13 13 13 13 13 13 13 13 13 13 12 12 11 10 9 8 7 8 8 7 7 7 6 5 5 5
17 16 15 15 14 14 14 14 14 14 14 14 13 13 13 13 13 13 13 13 13 13 13 13 13 12 12 12 11 10 9 8 8 8 8 8 7 7 6 6 5 5
17 16 16 15 14 14 14 14 14 14 14 13 13 14 13 13 13 13 13 13 13 13 13 12 12 12 12 12 11 10 9 9 8 8 8 7 7 6 6 6 6 5
17 16 16 15 14 14 14 14 14 14 13 13 14 14 13 13 13 13 13 13 13 13 12 12 12 12 12 12 11 10 9 9 8 8 8 7 6 6 6 6 6 5
17 16 16 15 14 14 14 14 14 14 13 13 14 14 13 13 13 13 13 13 13 13 12 12 12 12 12 12 11 10 10 9 9 9 8 7 6 6 6 6 6 6

ECMWFNIL_700_temp_036.txt.gz
Temp
13 13 13 14 14 13 14 14 14 14 13 13 13 13 13 12 12 12 12 12 12 11 11 11 11 11 11 11 11 11 11 11 11 10 10 10 10 10 10 9 9 9
14 14 14 14 14 14 14 14 14 14 13 13 13 13 13 13 12 12 12 12 12 11 11 12 12 11 11 11 11 11 11 10 10 10 10 10 10 10 10 9 9 9
14 14 14 14 14 14 14 14 14 14 13 13 13 13 13 13 13 12 12 12 12 12 11 12 12 12 11 11 11 11 10 10 10 10 10 10 10 9 9 9 9 9
14 14 14 15 15 14 14 14 14 14 14 13 13 13 13 13 13 12 12 12 12 12 12 12 12 12 11 11 11 11 10 10 10 10 10 10 9 9 9 9 9 9
14 14 15 15 14 14 14 14 14 14 14 13 13 13 13 13 13 13 13 12 12 12 12 12 12 12 11 11 11 11 10 10 10 10 10 10 9 9 9 9 9 9
14 15 15 14 14 14 14 14 14 14 14 13 13 13 13 13 13 13 13 13 12 12 12 12 12 12 11 11 11 11 10 10 10 10 10 10 9 9 9 9 9 9
15 15 15 14 14 14 14 14 14 14 14 14 13 13 13 13 13 13 13 13 13 12 12 12 12 11 11 11 11 11 11 10 10 10 9 9 9 9 9 9 9 9
15 15 15 15 14 15 15 14 14 14 14 14 13 13 13 13 13 13 13 13 13 13 12 12 12 12 11 11 11 11 11 10 10 10 9 9 9 9 9 9 8 8
15 15 15 15 15 15 15 15 14 14 14 14 14 13 13 13 13 13 13 13 13 13 13 12 12 12 12 12 11 11 11 10 10 10 9 9 9 9 9 8 8 8
15 15 15 15 15 15 15 15 14 14 14 14 14 14 13 13 13 13 13 13 13 13 13 12 12 12 12 12 11 11 11 10 10 10 9 9 9 9 8 8 8 8
16 16 15 15 15 15 15 15 14 14 14 14 14 14 14 13 13 13 13 13 13 13 12 12 12 12 12 12 11 11 11 11 10 10 9 9 9 8 8 8 8 8
16 16 16 15 15 15 15 15 14 14 14 14 14 14 14 13 13 13 13 13 13 13 12 12 12 12 12 12 11 11 11 11 10 10 10 9 8 8 8 8 7 7
16 16 15 15 15 15 15 15 14 14 14 14 14 14 14 13 13 13 13 13 13 12 12 12 12 12 12 12 12 11 11 10 10 10 9 9 8 8 8 8 7 7
16 16 15 15 15 15 15 15 14 14 14 14 14 14 14 13 13 13 13 13 13 13 12 12 12 12 12 12 12 11 11 10 10 9 9 9 9 8 8 7 7 7
16 16 15 15 15 15 15 14 14 14 14 14 14 14 13 13 13 13 13 13 13 13 13 12 13 13 12 12 12 11 11 10 10 10 9 9 9 9 8 7 7 7
16 16 15 15 15 15 14 14 14 14 14 14 14 14 14 14 13 13 13 13 13 13 13 13 13 13 13 13 12 12 11 11 11 10 10 9 8 8 8 7 7 7
16 16 15 15 15 14 14 14 14 14 14 14 14 14 14 14 13 13 13 13 13 13 13 13 13 13 13 13 12 12 12 12 11 11 10 9 8 8 7 7 7 6
16 16 15 15 15 15 14 14 14 14 14 14 14 14 14 13 13 13 13 13 13 13 13 13 13 13 13 13 13 12 12 12 12 11 10 10 9 8 8 7 7 6
16 16 16 15 15 15 14 14 14 14 14 14 14 14 14 13 13 13 13 13 13 13 13 13 13 13 13 13 13 12 12 12 12 11 10 10 9 9 8 7 7 7
16 16 16 15 15 15 14 14 14 14 14 14 14 14 14 13 13 13 13 13 13 13 13 13 13 13 13 13 13 12 12 12 12 11 11 10 9 9 8 8 7 7
16 16 16 15 15 15 14 14 14 14 14 14 14 14 14 14 13 13 13 13 13 13 13 13 13 13 13 13 13 12 12 12 12 11 10 9 9 8 8 8 8 8
17 16 16 16 15 15 14 15 14 14 14 14 14 14 14 14 13 13 13 13 13 13 13 13 13 13 13 13 13 12 12 12 12 11 10 9 9 8 8 8 8 7
17 17 16 16 15 15 15 15 14 14 14 14 14 14 14 14 13 13 13 13 13 13 13 13 13 13 13 13 13 12 12 12 12 11 10 10 9 8 8 8 7 7
17 17 16 16 16 15 15 15 14 14 14 14 14 14 14 14 13 13 13 13 13 13 13 13 13 13 13 13 12 12 12 12 12 11 11 10 9 9 8 8 7 7
17 17 16 16 16 16 15 15 14 14 14 14 14 14 13 13 13 13 13 13 13 13 13 13 13 13 12 12 12 12 12 12 11 11 11 10 9 9 8 7 7 7
18 17 17 16 16 16 15 15 14 14 14 14 14 13 13 13 13 13 13 13 13 13 13 13 12 12 12 11 12 12 12 12 11 11 11 10 9 9 8 8 7 7

ECMWFNIL_700_temp_042.txt.gz
Temp
13 13 13 13 13 13 12 12 12 12 12 12 11 11 11 10 10 10 11 11 11 12 12 11 11 11 11 11 11 11 10 10 10 10 10 10 10 10 10 9 9 9
13 13 13 13 13 13 13 12 12 12 12 12 12 11 11 11 10 11 11 11 12 12 12 11 11 11 11 11 11 11 11 10 10 10 10 10 10 10 10 9 9 9
13 13 13 13 13 13 13 13 12 12 12 12 12 12 12 11 11 11 11 12 12 12 12 12 12 12 11 11 11 11 11 11 10 10 10 10 10 10 10 9 9 9
14 14 13 13 13 13 13 13 13 12 12 12 12 12 12 12 12 12 12 12 12 12 12 12 12 12 12 11 11 11 11 11 10 10 10 10 10 10 10 9 9 9
14 14 14 13 13 13 13 13 13 13 13 13 12 12 12 12 12 12 12 12 12 12 12 12 12 12 12 11 11 11 11 11 10 10 10 10 10 10 9 9 9 9
14 14 14 14 13 13 13 13 13 13 13 13 13 12 12 12 12 12 12 12 12 12 12 12 12 12 12 12 11 11 11 11 11 10 10 10 10 10 9 9 9 9
14 14 14 14 13 13 13 13 13 13 13 13 13 12 12 13 13 13 13 12 12 12 12 12 12 12 12 12 12 11 11 11 11 11 10 10 10 9 9 9 9 9
14 14 14 14 14 14 14 13 13 13 13 13 13 13 13 13 13 13 13 13 12 12 12 12 12 12 12 12 12 12 11 11 11 11 10 10 10 10 9 9 9 8
14 14 14 14 14 14 14 14 13 13 13 13 13 13 13 13 13 13 13 13 13 12 12 12 12 12 12 12 12 12 12 11 11 11 11 10 10 10 9 9 9 8
14 14 14 14 14 14 14 14 13 13 13 13 13 13 13 13 13 13 13 13 13 12 12 12 12 12 12 12 12 12 12 12 11 11 11 10 10 10 9 9 9 8
15 15 15 15 15 14 14 14 14 13 13 13 13 13 13 13 13 13 13 13 13 13 12 12 12 12 12 12 12 12 12 12 11 11 11 11 10 10 10 10 9 9
15 15 15 15 15 15 15 14 14 14 14 14 14 14 13 13 13 13 13 13 13 13 13 13 12 12 12 12 12 12 12 12 12 11 11 11 11 11 10 10 10 9
16 16 16 16 15 15 15 15 15 14 14 14 14 14 14 14 13 13 13 13 13 13 13 13 13 13 13 12 12 12 12 12 12 12 12 11 11 11 11 10 10 9
16 16 16 16 15 15 15 15 15 15 15 14 14 14 14 14 14 13 13 13 13 13 13 13 13 13 13 13 12 12 12 12 12 12 12 11 11 11 11 10 10 9
16 16 16 16 15 15 15 15 15 15 15 15 15 15 14 14 14 14 13 13 13 13 13 13 13 13 13 13 12 12 12 12 12 12 12 11 11 11 11 10 10 9
16 16 16 16 16 16 16 16 15 15 15 15 15 15 15 14 14 14 14 13 13 13 13 13 13 13 13 13 12 12 12 12 12 12 12 11 11 11 11 10 10 9
16 16 16 16 16 16 16 16 16 16 15 15 15 15 15 14 14 14 14 14 14 13 13 13 13 13 13 13 12 12 12 12 12 12 11 11 11 11 11 10 10 10
16 16 16 16 16 16 16 16 16 16 16 15 15 15 15 15 14 14 14 14 14 14 13 13 13 13 13 13 13 12 12 12 12 12 12 12 11 11 11 11 11 10
17 16 16 16 16 16 16 16 16 16 16 16 15 15 15 15 15 14 14 14 14 14 14 14 14 13 13 13 13 12 12 12 12 12 12 12 12 12 12 12 12 12
17 16 16 16 16 16 15 16 16 16 16 16 15 15 15 15 15 14 14 14 14 14 14 14 14 14 13 13 13 12 12 12 12 12 12 12 12 12 12 12 12 12
17 17 17 17 16 16 16 16 16 16 16 16 15 15 15 15 15 15 14 14 14 14 14 14 14 14 13 13 13 12 12 12 12 12 12 13 12 13 13 12 12 11
17 17 17 17 16 16 16 15 15 16 16 16 15 15 15 15 15 14 14 14 14 14 14 14 14 14 13 13 13 12 12 12 12 12 12 12 13 13 12 12 12 11
18 17 17 17 16 16 16 16 15 15 15 15 15 15 15 15 15 14 14 14 14 14 14 14 14 14 13 13 13 13 12 12 12 12 12 12 12 12 12 12 11 11
18 18 17 17 17 17 17 16 15 15 15 15 15 15 15 15 15 14 14 14 14 14 14 14 14 14 13 13 13 13 12 12 12 12 12 12 12 12 12 12 11 11
18 18 18 18 18 17 17 16 16 15 15 15 15 15 15 15 15 14 14 14 14 14 14 14 14 14 13 13 13 13 12 12 12 12 12 12 12 12 12 12 11 11
18 18 17 17 17 17 17 16 16 16 16 15 15 15 15 15 15 14 14 14 14 14 14 14 14 14 13 13 13 13 12 12 12 12 12 12 12 12 12 12 12 11

ECMWFNIL_700_temp_045.txt.gz
Temp
13 13 13 13 13 13 13 12 12 12 12 12 11 11 11 11 10 10 10 10 11 11 12 12 12 11 11 11 11 11 11 11 11 10 10 10 10 10 10 10 10 10
13 13 13 13 13 13 13 13 13 12 12 12 12 11 11 11 11 10 10 11 11 11 12 12 12 12 12 11 11 11 11 11 11 10 10 10 10 10 10 10 10 10
13 13 13 13 13 13 13 13 13 12 12 12 12 12 11 11 11 11 10 11 11 12 12 12 12 12 12 12 11 11 11 11 11 10 10 10 10 10 10 10 10 9
14 14 14 13 13 13 13 13 13 13 12 12 12 12 12 11 11 11 11 11 11 12 12 12 12 12 12 12 12 12 11 11 11 11 10 10 10 10 10 10 10 9
14 14 14 14 13 13 13 13 13 13 13 13 12 12 12 12 11 11 11 11 12 12 12 12 12 12 12 12 12 12 12 11 11 11 11 10 10 10 10 10 10 9
14 14 14 14 13 13 13 13 13 13 13 13 13 12 12 12 12 12 12 12 12 13 13 13 12 12 12 12 12 12 12 12 11 11 11 11 10 10 10 10 10 9
14 14 14 14 14 14 14 14 14 14 13 13 13 13 12 12 12 12 12 12 12 13 13 13 12 12 12 12 12 12 12 12 12 11 11 11 11 10 10 10 9 9
14 14 14 14 13 14 14 14 14 14 14 13 13 13 13 12 12 12 12 13 13 13 13 13 13 12 12 12 12 12 12 12 12 11 11 11 11 11 10 10 9 9
14 13 13 13 13 13 14 14 14 14 14 13 13 13 13 13 13 13 13 13 13 13 13 13 13 13 12 12 12 12 12 12 12 12 12 11 11 11 10 10 10 9
14 13 13 13 14 14 14 14 14 14 14 14 13 13 13 13 13 13 13 13 13 13 13 13 13 13 12 12 12 12 12 12 12 12 12 12 11 11 11 10 10 10
14 14 14 14 14 14 14 14 14 14 14 14 14 14 13 13 13 13 14 14 14 14 13 13 13 13 13 12 12 12 12 12 12 12 12 12 12 11 11 11 10 10
14 14 14 14 14 14 14 14 14 14 14 14 14 14 14 14 14 14 14 14 14 14 13 13 13 13 13 12 12 12 12 12 12 12 12 12 12 12 11 11 11 10
15 15 15 15 15 15 15 15 15 15 15 14 14 14 14 14 14 14 14 14 14 14 14 13 13 13 13 13 12 12 12 12 12 12 12 12 12 12 12 12 11 11
15 15 15 15 15 15 15 15 15 15 15 15 15 15 15 14 14 14 14 14 14 14 14 13 13 13 13 13 12 12 12 12 12 12 12 12 12 12 12 12 12 11
15 15 15 15 15 15 15 15 15 15 15 15 15 15 15 15 15 15 15 15 14 14 14 14 13 13 13 13 13 13 12 12 12 12 12 12 12 12 12 12 12 12
16 16 15 15 15 15 15 15 15 16 16 15 15 15 15 15 15 15 15 15 14 14 14 14 14 14 13 13 13 13 13 12 12 12 12 12 12 12 12 12 12 12
16 16 16 16 16 15 15 15 15 16 16 16 16 15 15 15 15 15 15 15 14 14 14 14 14 14 14 13 13 13 13 13 13 12 12 12 12 12 12 12 12 12
16 16 16 16 16 16 16 15 15 16 16 16 16 16 16 15 15 15 15 15 15 14 14 14 14 14 14 13 13 13 13 13 13 13 13 13 12 12 12 12 12 12
16 16 16 16 16 16 16 16 15 16 16 16 16 16 16 16 15 15 15 15 15 15 14 14 14 14 14 14 13 13 13 13 13 13 13 13 12 12 12 12 12 12
17 17 16 16 16 16 16 16 16 16 16 16 16 16 16 16 16 15 15 15 15 15 15 14 14 14 14 14 13 13 13 13 13 13 13 13 13 12 12 12 12 12
17 17 17 17 16 16 16 16 16 16 16 16 16 16 16 16 16 16 15 15 15 15 15 15 14 14 14 14 13 13 13 13 13 13 13 13 13 12 12 12 12 12
17 17 17 17 17 16 16 16 16 16 16 16 16 16 16 16 16 16 15 15 15 15 15 15 14 14 14 14 13 13 13 13 13 13 13 13 13 12 12 12 12 12
17 17 17 17 17 17 16 16 16 15 15 15 15 16 16 16 16 16 16 15 15 15 15 15 15 14 14 14 14 13 13 13 13 13 13 13 13 12 12 12 12 12
17 17 17 17 17 17 17 16 16 16 15 15 15 15 16 16 16 16 16 15 15 15 15 15 15 14 14 14 14 13 13 13 13 13 13 13 13 12 12 12 12 12
17 17 17 17 17 17 17 17 17 16 16 16 15 16 16 16 16 16 16 16 15 15 15 15 15 15 14 14 14 14 14 13 13 13 13 13 13 12 12 12 12 12
17 18 18 18 17 17 17 17 17 16 16 16 16 16 16 16 16 16 16 16 16 16 15 15 15 15 15 14 14 14 14 14 13 13 13 13 13 12 12 12 12 12

ECMWFNIL_700_temp_048.txt.gz
Temp
13 13 13 13 13 13 13 12 12 12 12 12 12 12 11 11 11 11 11 11 11 11 11 12 11 11 11 11 11 11 11 11 11 11 11 11 11 11 11 10 10 10
13 13 13 13 13 13 13 13 13 12 12 12 12 12 12 12 11 11 11 11 11 11 11 12 12 11 11 11 11 11 11 11 11 11 11 11 11 11 11 11 10 10
13 13 13 13 13 13 13 13 13 13 13 12 12 12 12 12 12 12 11 11 11 11 11 12 12 12 12 11 11 11 11 11 11 11 11 11 11 11 11 11 11 10
14 13 13 13 13 13 13 13 13 13 13 13 13 12 12 12 12 12 12 12 11 11 11 12 12 12 12 12 12 12 11 11 11 11 11 11 11 11 11 11 11 10
14 14 13 13 13 13 13 13 13 13 13 13 13 13 13 13 12 12 12 12 12 12 12 12 12 12 12 12 12 12 12 12 11 11 11 11 11 11 11 11 11 11
14 14 14 14 14 13 13 13 13 13 13 13 13 13 13 13 13 12 12 12 12 12 12 12 12 12 12 12 12 12 12 12 12 12 11 11 11 11 11 11 11 11
14 14 14 14 14 14 14 14 14 13 13 13 13 13 13 13 13 13 12 12 13 12 12 12 13 13 13 13 12 12 12 12 12 12 12 12 11 11 11 11 11 11
14 14 14 14 14 14 14 14 14 14 14 14 14 13 13 13 13 13 13 13 13 13 13 13 13 13 13 13 13 12 12 12 12 12 12 12 12 12 11 11 11 11
15 14 14 14 14 14 14 14 14 14 14 14 14 14 14 14 13 13 13 13 13 13 13 13 13 13 13 13 13 13 12 12 12 12 12 12 12 12 12 11 11 11
15 14 14 14 14 14 14 14 14 14 14 14 14 14 14 14 14 13 13 13 13 13 13 13 13 13 13 13 13 13 13 12 12 12 12 12 12 12 12 12 12 12
14 14 14 14 14 14 14 14 14 14 14 14 14 14 14 14 14 13 13 13 13 13 13 13 13 13 13 13 13 13 13 13 12 12 12 12 12 12 12 12 12 12
15 14 14 14 14 14 14 14 14 14 14 14 14 14 14 14 14 14 13 14 13 13 13 13 13 13 13 13 13 13 13 13 13 12 12 12 12 12 12 12 12 12
15 15 14 14 14 14 14 14 14 14 14 15 15 14 14 14 14 14 14 14 13 13 13 14 13 13 13 13 14 13 13 13 13 13 12 12 12 12 12 12 12 12
15 15 15 14 14 14 14 14 14 14 14 15 15 15 14 14 14 14 14 14 13 14 14 14 14 14 13 13 14 14 13 13 13 13 12 12 12 12 12 12 12 12
15 15 15 15 14 14 14 14 14 14 14 15 15 15 15 15 15 14 14 14 14 14 14 14 14 14 14 14 14 14 14 13 13 13 13 13 12 12 12 12 12 12
16 15 15 15 15 15 15 14 14 14 15 15 15 15 15 15 15 15 14 14 14 14 14 14 14 15 14 14 14 14 14 13 13 13 13 13 13 12 12 12 12 12
16 16 15 15 15 15 15 15 15 15 15 15 15 15 15 15 15 15 15 15 15 15 15 15 15 15 15 14 14 14 14 13 13 13 13 13 13 13 12 12 12 12
16 16 16 16 16 16 16 15 15 15 15 15 16 16 16 16 16 15 15 15 15 15 15 15 15 15 15 15 14 14 14 13 13 13 13 13 13 13 13 12 12 12
16 16 16 16 16 16 16 15 15 15 15 16 16 16 16 16 16 16 16 16 16 16 16 16 15 15 15 15 14 14 14 14 13 13 13 13 13 13 13 13 12 12
17 17 16 16 16 16 16 16 15 15 15 15 15 15 16 16 16 16 16 16 16 16 16 16 16 16 15 15 15 14 14 14 13 13 13 13 13 13 13 13 13 13
17 17 17 16 16 16 16 16 16 15 15 15 15 15 16 16 16 16 16 16 16 16 16 16 16 16 16 15 15 15 14 14 14 13 13 13 13 13 13 13 13 13
17 17 17 16 16 16 16 16 16 16 16 15 15 15 15 16 16 16 16 16 16 16 16 16 16 16 16 16 15 15 14 14 14 14 14 14 13 13 13 13 13 13
17 17 17 17 17 17 17 16 16 16 16 16 16 16 15 16 16 16 16 16 16 16 16 16 16 16 16 16 16 15 15 14 14 14 14 14 14 14 14 14 13 13
18 17 17 17 17 17 17 17 17 16 16 16 16 16 16 16 16 16 16 16 16 16 16 16 16 16 16 16 16 15 15 15 14 14 14 14 14 14 14 14 13 13
18 18 18 18 17 17 17 17 17 17 17 17 17 16 16 16 16 16 16 16 16 16 16 16 16 16 16 16 16 15 15 15 15 14 14 14 14 14 14 14 14 13
18 18 18 18 18 17 17 17 17 17 17 17 17 17 16 16 16 16 16 16 16 16 16 16 15 15 15 16 15 15 15 15 15 14 14 14 14 14 14 14 14 13